{"data":{"norad_id":64020,"epoch":"2026-05-25T02:56:01.535136Z","epoch_age_seconds":58287,"freshness":"FRESH","line1":"1 64020U 25101AC  26145.12223999  .00018970  00000+0  69677-3 0  9998","line2":"2 64020  42.9980 286.3852 0001948 270.8642  89.1986 15.27594412 58746","mean_motion":15.27594412,"eccentricity":0.0001948,"inclination_deg":42.998,"raan_deg":286.3852,"arg_perigee_deg":270.8642,"mean_anomaly_deg":89.1986,"bstar":0.00069677,"rev_number":5874,"period_min":94.265859359533,"perigee_km":481.66939102121,"apogee_km":484.34249231129,"semimajor_km":6861.1429416662,"source":"CELESTRAK","updated_at":"2026-05-25T13:38:20.223588Z"}}